Regional Weather Roundup
Issued by NWS

Home | Current Version | Previous Version | Graphics & Text | Print | Product List | Glossary On
Versions: 1 2 3 4 5 6 7 8 9 10 11 12 13 14 15 16 17 18 19 20 21 22 23 24 25 26 27 28 29 30 31 32 33 34 35 36 37 38 39 40 41 42 43 44 45 46 47 48 49 50
000
ASUS43 KIND 270409
RWRIN

WEATHER ROUNDUP FOR INDIANA
NATIONAL WEATHER SERVICE INDIANAPOLIS IN
1200 AM EDT WED MAY 27 2015

NOTE: "FAIR" INDICATES FEW OR NO CLOUDS BELOW 12,000 FEET WITH NO
SIGNIFICANT WEATHER AND/OR OBSTRUCTIONS TO VISIBILITY.

* - STATION DOES NOT REPORT WEATHER SUCH AS PRECIPITATION OR FOG.

+ - STATION NOT QUALITY CONTROLLED BY THE NATIONAL WEATHER SERVICE.
    USE DATA WITH CAUTION...ESPECIALLY DEWPOINT AND RELATIVE
    HUMIDITY OBSERVATIONS.

INZ001>003-010>013-019-020-270500-
NORTHWEST INDIANA

CITY           SKY/WX    TMP DP  RH WIND       PRES   REMARKS
GARY /AIRPORT/ PTCLDY    70  64  79 S8G18     29.88F
KNOX *+        PTCLDY    66  59  77 SW12      29.92S
LA PORTE +     PTCLDY    69  62  79 SW13      29.92S
MICHIGAN CITY+ PTCLDY    66  59  77 S9G16     29.90S
MONTICELLO +   PTCLDY    66  62  87 SW7       29.95R
RENSSELAER +   CLEAR     66  63  88 S13       29.93F
VALPARAISO     PTCLDY    67  60  78 S12       29.92R

$$

LMZ046-743>745-270500-
SOUTHERN LAKE MICHIGAN

STATION/POSITION TIME  TEMP    WIND        PRES    WAVE
                       AIR SEA DIR/SP/G            HT
                 (UTC) (F)     (DEG/KT/KT) (MB)    (FT)
BURNS HARBOR     0400   68     190/ 13/ 16 1012.5S
MICHIGAN CITY    0400   69     170/ 14/ 18   N/A
5NW MICH CITY    0400   63 52  210/ 12/ 16   N/A     1

$$

INZ004-005-014>016-021>024-270500-
NORTH CENTRAL INDIANA

CITY           SKY/WX    TMP DP  RH WIND       PRES   REMARKS
GOSHEN         MOCLDY    67  59  75 SW13      29.93R
LOGANSPORT +   PTCLDY    66  55  68 SW9       29.97R
PERU/GRISSOM   MOCLDY    65  60  84 SW8       29.96R
ROCHESTER +    MOCLDY    70  61  73 SW8       29.95S
SOUTH BEND     MOCLDY    68  61  78 SW9       29.92R
WARSAW +       MOCLDY    68  59  73 SW7       29.94S

$$

INZ006>009-017-018-025>027-270500-
NORTHEAST INDIANA

CITY           SKY/WX    TMP DP  RH WIND       PRES   REMARKS
ANGOLA *+      PTCLDY    72  63  73 W15       29.93R
AUBURN +       CLOUDY    72  61  68 SW7       29.96R
FORT WAYNE     MOCLDY    68  62  81 SW8       29.96R
HUNTINGTON +   CLOUDY    69  59  70 SW5       29.96S

$$

INZ028-029-035-036-043>045-051>053-270500-
WEST CENTRAL INDIANA

CITY           SKY/WX    TMP DP  RH WIND       PRES   REMARKS
CRAWFORDSVL +  PTCLDY    65  55  67 S8        29.99S
GREENCASTLE +  PTCLDY    66  55  68 SW3       30.02R
LAFAYETTE      CLEAR     67  59  75 SW6       29.96R
TERRE HAUTE    CLEAR     70  60  70 S12       30.00R

$$

INZ030>032-037>040-046>048-054>057-064-065-270500-
CENTRAL INDIANA

CITY           SKY/WX    TMP DP  RH WIND       PRES   REMARKS
CP ATTERBURY + MOCLDY    66  59  77 SW5       30.02S
FRANKFORT +    PTCLDY    68  59  73 S8        30.00S
GREENWOOD *+   MOCLDY    68  57  68 SW6       30.02R
INDIANAPOLIS   MOCLDY    68  57  68 SW10      29.99R
-EAGLE CREEK   PTCLDY    69  58  67 SW7       29.99S
KOKOMO *+      MOCLDY    72  57  60 SW14      29.97R
MARION +       MOCLDY    68  57  68 SW12      29.99R
MT COMFORT *+  PTCLDY    68  54  60 S6        30.01S
SHELBYVILLE    PTCLDY    71  63  75 SW10      30.01R
ZIONSVILLE +   PTCLDY    69  57  65 SW10      30.00S

$$

INZ033-034-041-042-049-050-058-059-270500-
EAST CENTRAL INDIANA

CITY           SKY/WX    TMP DP  RH WIND       PRES   REMARKS
MUNCIE         PTCLDY    70  64  81 SW8       29.99R

$$

INZ060-061-067>069-081>083-085>088-270500-
SOUTHWEST INDIANA

CITY           SKY/WX    TMP DP  RH WIND       PRES   REMARKS
EVANSVILLE     CLEAR     68  62  81 SW9       30.06R
HUNTINGBURG *+ CLEAR     66  61  82 SW8       30.06R
WASHINGTON +   CLEAR     68  58  71 S7        30.03S

$$

INZ062-063-066-070>080-084-089>092-270500-
SOUTH CENTRAL AND SOUTHEAST INDIANA

CITY           SKY/WX    TMP DP  RH WIND       PRES   REMARKS
BLOOMINGTON    PTCLDY    69  59  70 SW8       30.03R
MADISON *+     MOCLDY    68  63  83 S8        30.07S
NORTH VERNON + MOCLDY    68  68 100 S6        30.05R
SEYMOUR +      MOCLDY    68  64  88 SW6       30.03S

$$



USA.gov is the U.S. government's official web portal to all federal, state and local government web resources and services.